Location: Helion Bumpstead
(52.0500°N, 0.4000°E)
Time: 22:37:19
(UTC+00:00)

SL-16 R/B - Visible Passes

Search period start: 15 February 2026 00:00
Search period end: 25 February 2026 00:00
Orbit: 841 x 846 km, 71.0° (Epoch: 15 February)

Date Brightness Start Highest point End Pass type
(mag) Time Alt. Az. Time Alt. Az. Time Alt. Az.
15 Feb 2.3 18:26:01 10° NNW 18:31:37 57° NE 18:37:12 10° SE visible
15 Feb 3.8 20:10:32 10° NW 20:15:26 31° WSW 20:19:52 12° SSW visible
16 Feb 2.3 18:11:32 10° NNW 18:17:08 56° NE 18:22:41 10° SE visible
16 Feb 3.8 19:56:02 10° NW 20:00:59 32° WSW 20:05:55 10° SSW visible
17 Feb 2.4 17:57:03 10° NNW 18:02:38 54° NE 18:08:11 10° SE visible
17 Feb 3.8 19:41:30 10° NW 19:46:31 33° WSW 19:51:30 10° SSW visible
18 Feb 2.4 17:42:35 10° NNW 17:48:08 52° NE 17:53:40 10° SE visible
18 Feb 3.8 19:27:00 10° NW 19:32:03 34° WSW 19:37:05 10° S visible
19 Feb 3.8 19:12:30 10° NW 19:17:36 35° WSW 19:22:40 10° S visible
20 Feb 3.8 18:58:00 10° NW 19:03:08 37° WSW 19:08:15 10° S visible
21 Feb 3.8 18:43:29 10° NW 18:48:39 38° WSW 18:53:50 10° S visible
22 Feb 3.7 18:28:58 10° NW 18:34:12 39° WSW 18:39:24 10° S visible
23 Feb 3.7 18:14:27 10° NW 18:19:44 41° WSW 18:24:58 10° S visible
24 Feb 3.7 17:59:57 10° NW 18:05:15 42° WSW 18:10:32 10° S visible
